• In Uzbekistan
  • List of Countries
  • For 7 days
  • Water Temperature
  • Satellite Maps
  • Weather Map
  • Weather Widgets
  • user-avatar
    Login

    Hourly Weather Larisa

    Today, 23 August, Wednesday

    Time Temperature Precipitation Wind Pressure Humidity
    00:00 +21°C° 0 mm 1 mps 754 mmHg 56%
    01:00 +21°C° 0 mm 1 mps 754 mmHg 60%
    02:00 +21°C° 0 mm 1 mps 754 mmHg 62%
    03:00 +20°C° 0 mm 1 mps 754 mmHg 64%
    04:00 +18°C° 0 mm 0 mps 754 mmHg 66%
    05:00 +21°C° 0 mm 1 mps 754 mmHg 62%
    06:00 +23°C° 0 mm 1 mps 754 mmHg 58%
    07:00 +24°C° 0 mm 1 mps 755 mmHg 52%
    08:00 +26°C° 0 mm 1 mps 755 mmHg 48%
    09:00 +27°C° 0 mm 1 mps 755 mmHg 44%
    10:00 +29°C° 0 mm 1 mps 755 mmHg 40%
    11:00 +30°C° 0 mm 2 mps 755 mmHg 39%
    12:00 +30°C° 0 mm 2 mps 755 mmHg 38%
    13:00 +31°C° 0 mm 2 mps 754 mmHg 39%
    14:00 +31°C° 0 mm 2 mps 754 mmHg 40%
    15:00 +31°C° 0 mm 2 mps 754 mmHg 40%
    16:00 +31°C° 0 mm 2 mps 754 mmHg 41%
    17:00 +29°C° 0 mm 2 mps 754 mmHg 48%
    18:00 +27°C° 0 mm 2 mps 754 mmHg 54%
    19:00 +26°C° 0 mm 2 mps 754 mmHg 61%
    20:00 +25°C° 0 mm 2 mps 755 mmHg 63%
    21:00 +24°C° 0 mm 1 mps 755 mmHg 66%
    22:00 +24°C° 0 mm 1 mps 756 mmHg 68%
    23:00 +23°C° 0 mm 1 mps 756 mmHg 69%

    Tomorrow, 24 August, Thursday

    Time Temperature Precipitation Wind Pressure Humidity
    00:00 +23°C° 0 mm 1 mps 756 mmHg 69%
    01:00 +23°C° 0 mm 1 mps 756 mmHg 70%
    02:00 +22°C° 0 mm 1 mps 756 mmHg 69%
    03:00 +22°C° 0 mm 1 mps 756 mmHg 68%
    04:00 +21°C° 0 mm 2 mps 756 mmHg 67%
    05:00 +23°C° 0 mm 2 mps 756 mmHg 61%
    06:00 +24°C° 0 mm 2 mps 757 mmHg 55%
    07:00 +25°C° 0 mm 2 mps 757 mmHg 50%
    08:00 +26°C° 0 mm 2 mps 757 mmHg 44%
    09:00 +28°C° 0 mm 2 mps 757 mmHg 38%
    10:00 +29°C° 0 mm 2 mps 757 mmHg 32%
    11:00 +30°C° 0 mm 2 mps 757 mmHg 31%
    12:00 +31°C° 0 mm 2 mps 757 mmHg 29%
    13:00 +32°C° 0 mm 2 mps 757 mmHg 28%
    14:00 +31°C° 0 mm 2 mps 756 mmHg 29%
    15:00 +31°C° 0 mm 2 mps 756 mmHg 29%
    16:00 +31°C° 0 mm 2 mps 756 mmHg 30%
    17:00 +29°C° 0 mm 2 mps 756 mmHg 36%
    18:00 +27°C° 0 mm 2 mps 757 mmHg 41%
    19:00 +25°C° 0 mm 2 mps 757 mmHg 47%
    20:00 +24°C° 0 mm 2 mps 757 mmHg 49%
    21:00 +24°C° 0 mm 1 mps 758 mmHg 50%
    22:00 +23°C° 0 mm 1 mps 758 mmHg 52%
    23:00 +23°C° 0 mm 1 mps 758 mmHg 52%

    Day after tomorrow, 25 August, Friday

    Time Temperature Precipitation Wind Pressure Humidity
    00:00 +22°C° 0 mm 1 mps 758 mmHg 51%
    01:00 +22°C° 0 mm 1 mps 758 mmHg 50%
    02:00 +21°C° 0 mm 2 mps 758 mmHg 51%
    03:00 +20°C° 0 mm 2 mps 758 mmHg 51%
    04:00 +20°C° 0 mm 2 mps 758 mmHg 51%
    05:00 +21°C° 0 mm 2 mps 758 mmHg 48%
    06:00 +24°C° 0 mm 2 mps 758 mmHg 45%
    07:00 +25°C° 0 mm 1 mps 758 mmHg 42%
    08:00 +27°C° 0 mm 2 mps 758 mmHg 38%
    09:00 +28°C° 0 mm 2 mps 758 mmHg 34%
    10:00 +30°C° 0 mm 2 mps 758 mmHg 31%
    11:00 +31°C° 0 mm 2 mps 758 mmHg 29%
    12:00 +31°C° 0 mm 2 mps 758 mmHg 28%
    13:00 +32°C° 0 mm 2 mps 757 mmHg 26%
    14:00 +32°C° 0 mm 2 mps 757 mmHg 27%
    15:00 +31°C° 0 mm 3 mps 757 mmHg 28%
    16:00 +31°C° 0 mm 3 mps 756 mmHg 29%
    17:00 +29°C° 0 mm 2 mps 756 mmHg 33%
    18:00 +27°C° 0 mm 2 mps 757 mmHg 37%
    19:00 +25°C° 0 mm 1 mps 757 mmHg 41%
    20:00 +24°C° 0 mm 1 mps 757 mmHg 41%
    21:00 +24°C° 0 mm 1 mps 757 mmHg 42%
    22:00 +23°C° 0 mm 1 mps 758 mmHg 43%
    23:00 +23°C° 0 mm 1 mps 757 mmHg 43%

    26 August, Saturday

    Time Temperature Precipitation Wind Pressure Humidity
    00:00 +23°C° 0 mm 1 mps 757 mmHg 44%
    01:00 +22°C° 0 mm 1 mps 757 mmHg 45%
    02:00 +22°C° 0 mm 1 mps 757 mmHg 46%
    03:00 +22°C° 0 mm 1 mps 757 mmHg 48%
    04:00 +21°C° 0 mm 1 mps 757 mmHg 50%
    05:00 +23°C° 0 mm 1 mps 757 mmHg 47%
    06:00 +24°C° 0 mm 1 mps 757 mmHg 44%
    07:00 +25°C° 0 mm 1 mps 757 mmHg 42%
    08:00 +27°C° 0 mm 1 mps 757 mmHg 38%
    09:00 +29°C° 0 mm 2 mps 757 mmHg 34%
    10:00 +31°C° 0 mm 2 mps 757 mmHg 30%
    11:00 +32°C° 0 mm 2 mps 756 mmHg 28%
    12:00 +32°C° 0 mm 2 mps 756 mmHg 26%
    13:00 +34°C° 0 mm 2 mps 756 mmHg 24%
    14:00 +34°C° 0 mm 2 mps 755 mmHg 24%
    15:00 +34°C° 0 mm 3 mps 755 mmHg 24%
    16:00 +33°C° 0 mm 3 mps 755 mmHg 24%
    17:00 +30°C° 0 mm 2 mps 755 mmHg 27%
    18:00 +28°C° 0 mm 2 mps 755 mmHg 30%
    19:00 +26°C° 0 mm 1 mps 755 mmHg 32%
    20:00 +25°C° 0 mm 1 mps 755 mmHg 33%
    21:00 +25°C° 0 mm 1 mps 756 mmHg 33%
    22:00 +24°C° 0 mm 1 mps 756 mmHg 33%
    23:00 +24°C° 0 mm 1 mps 756 mmHg 34%

    27 August, Sunday

    Time Temperature Precipitation Wind Pressure Humidity
    00:00 +24°C° 0 mm 1 mps 755 mmHg 34%
    01:00 +23°C° 0 mm 2 mps 755 mmHg 35%
    02:00 +23°C° 0 mm 1 mps 755 mmHg 37%
    03:00 +23°C° 0 mm 1 mps 755 mmHg 38%
    04:00 +22°C° 0 mm 1 mps 755 mmHg 40%
    05:00 +24°C° 0 mm 1 mps 755 mmHg 38%
    06:00 +25°C° 0 mm 1 mps 755 mmHg 36%
    07:00 +26°C° 0 mm 1 mps 755 mmHg 35%
    08:00 +28°C° 0 mm 1 mps 755 mmHg 32%
    09:00 +30°C° 0 mm 1 mps 755 mmHg 29%
    10:00 +32°C° 0 mm 1 mps 755 mmHg 26%
    11:00 +33°C° 0 mm 1 mps 754 mmHg 24%
    12:00 +35°C° 0 mm 2 mps 754 mmHg 23%
    13:00 +36°C° 0 mm 2 mps 754 mmHg 21%
    14:00 +36°C° 0 mm 2 mps 753 mmHg 21%
    15:00 +35°C° 0 mm 2 mps 753 mmHg 21%
    16:00 +35°C° 0 mm 3 mps 753 mmHg 22%
    17:00 +32°C° 0 mm 2 mps 753 mmHg 25%
    18:00 +30°C° 0 mm 2 mps 753 mmHg 28%
    19:00 +28°C° 0 mm 1 mps 754 mmHg 31%
    20:00 +27°C° 0 mm 1 mps 754 mmHg 32%
    21:00 +26°C° 0 mm 1 mps 754 mmHg 32%
    22:00 +26°C° 0 mm 1 mps 754 mmHg 32%
    23:00 +26°C° 0 mm 1 mps 754 mmHg 33%

    28 August, Monday

    Time Temperature Precipitation Wind Pressure Humidity
    00:00 +25°C° 0 mm 2 mps 754 mmHg 34%
    01:00 +25°C° 0 mm 2 mps 754 mmHg 35%
    02:00 +24°C° 0 mm 2 mps 753 mmHg 37%
    03:00 +24°C° 0 mm 2 mps 753 mmHg 39%
    04:00 +24°C° 0 mm 1 mps 753 mmHg 41%
    05:00 +25°C° 0 mm 2 mps 754 mmHg 38%
    06:00 +26°C° 0 mm 2 mps 754 mmHg 36%
    07:00 +28°C° 0 mm 2 mps 754 mmHg 34%
    08:00 +30°C° 0 mm 2 mps 754 mmHg 31%
    09:00 +32°C° 0 mm 2 mps 753 mmHg 27%
    10:00 +35°C° 0 mm 2 mps 753 mmHg 24%
    11:00 +36°C° 0 mm 2 mps 753 mmHg 23%
    12:00 +36°C° 0 mm 2 mps 752 mmHg 22%
    13:00 +37°C° 0 mm 3 mps 752 mmHg 20%
    14:00 +37°C° 0 mm 3 mps 752 mmHg 21%
    15:00 +36°C° 0 mm 3 mps 752 mmHg 21%
    16:00 +36°C° 0 mm 3 mps 751 mmHg 22%
    17:00 +34°C° 0 mm 2 mps 752 mmHg 25%
    18:00 +31°C° 0 mm 2 mps 752 mmHg 27%
    19:00 +29°C° 0 mm 1 mps 752 mmHg 30%
    20:00 +28°C° 0 mm 1 mps 752 mmHg 31%
    21:00 +27°C° 0 mm 1 mps 752 mmHg 31%
    22:00 +27°C° 0 mm 1 mps 753 mmHg 32%
    23:00 +26°C° 0 mm 1 mps 752 mmHg 33%
    Show more